Showing default

LOPEN, 60473

Orbit data source: Space-Track

LOPEN, 60473 is an American payload satellite in SSO that was launched on Fri, 16 Aug 2024 UTC via an FALCON 9 launch vehicle from the Air Force Western Test Range (AFWTR). Payload-class satellites include a variety of spacecraft equipped with specific instruments for various scientific and technological missions. These include communications satellites like Starlink; space stations such as the ISS; scientific satellites like the Hubble; Earth observation satellites from companies like Planet Labs, Umbra, and HawkEye 360; GPS; miniature CubeSats for education and research; and military/defense satellites.

Loading next visibility...
Identifier
60473, 2024-149F
Orbit
SSO
Country
Flag of USUS
Related business
Manufacturer
ARRAY
Mission
Operational Commercial Technology
Bus & Motor
CUBESAT 1.5U, Unknown motor
Mass
1.83 kg wet, 1.83 kg dry
Launch date (UTC)
2024-08-16 (2 years ago)
Launch vehicle
FALCON 9
Launch site
Air Force Western Test Range (AFWTR)
Object type
Payload
Rocket body
Debris
Shape & HBR
Box, 0.1 m
Radar Cross Section
0.015 m², Small (<0.1 m²)

Expand to show TLE details & history
Last TLE update: 7 hours ago

TLE from 7 hours ago
0 LOPEN
1 60473U 24149F   26126.12907851  .00014678  00000-0  38815-3 0  9994
2 60473  97.3770 209.2092 0002501  77.9673 282.1852 15.38505207 95790
Epoch: 2026-05-06T03:05Z
TLE epoch observation values (Epoch: 2026-05-06T03:05:52.383Z)
Latitude
-0.00005°
Longitude
-61.25306°
Altitude
453.285 km
Speed
7.641 km/s
True Right ascension
13h 56m 50s
True Declination
0° 00' 00"
Sunlit
Object was in full shadow at epoch
Visualization orbit readout
Latitude
Unknown
Longitude
Unknown
Altitude
Unknown
Speed
Unknown
Apparent Right ascension
Unknown
Apparent Declination
Unknown
Sunlit
N/A
Visualization observer readout
Local Sidereal Time
18:24:03
Azimuth
Unknown
Elevation
Unknown
Doppler factor
Unknown
Orbital elements
Apogee altitude
449.176 km
Perigee altitude
445.762 km
Semi-major axis
6,825.606 km
Eccentricity
0.00025
Inclination
97.377°
RAAN
209.2092°
Arg. of periapsis
77.9673°
True anomaly
282.15718°
Mean anomaly
282.1852°
Eccentric anomaly
282.17119°
Mean motion
3.84885 °/min
Orbital period
93.53 mins
BSTAR
0.00038815
Loading maneuver chart data...
Computing Atmospheric mass density...
Loading historical data...
Loading historical data...
Loading historical data...
Loading historical data...
Loading historical data...
Loading historical data...
Loading historical data...

Documentation

Showing up to 5 results
|